This is the latest recevied weather packets stored in our database for station/object N6GPM. If no packets are shown the sender has not sent any weather packets the latest 10 day(s).
| Time | Temp. | Humidity | Pressure | Rain* | Wind** | Luminosity | Snow |
|---|---|---|---|---|---|---|---|
| 1787428888 | 36.11° C | 21% | 1019.5 hPa | 0 mm | - | 1012 W/m² | - |
| 1787428579 | 36.11° C | 21% | 1019.4 hPa | 0 mm | - | 1011 W/m² | - |
| 1787428279 | 35.56° C | 20% | 1019.6 hPa | 0 mm | - | 1011 W/m² | - |
| 1787427974 | 35.56° C | 20% | 1019.6 hPa | 0 mm | - | 1013 W/m² | - |
| 1787427668 | 35.56° C | 19% | 1019.6 hPa | 0 mm | - | 1011 W/m² | - |
| 1787427364 | 35.56° C | 20% | 1019.6 hPa | 0 mm | - | 1010 W/m² | - |
| 1787427060 | 36.11° C | 18% | 1019.8 hPa | 0 mm | - | 1012 W/m² | - |
| 1787426756 | 35.56° C | 19% | 1019.6 hPa | 0 mm | - | 1010 W/m² | - |
| 1787426451 | 35.56° C | 20% | 1019.9 hPa | 0 mm | - | 1006 W/m² | - |
| 1787426148 | 35.56° C | 19% | 1019.9 hPa | 0 mm | - | 1005 W/m² | - |
| 1787425844 | 35.56° C | 19% | 1019.9 hPa | 0 mm | - | 997 W/m² | - |
| 1787425540 | 35.56° C | 19% | 1020.1 hPa | 0 mm | - | 992 W/m² | - |
| 1787425235 | 35° C | 19% | 1020.2 hPa | 0 mm | - | 990 W/m² | - |
| 1787424934 | 35° C | 19% | 1020 hPa | 0 mm | - | 984 W/m² | - |
| 1787424634 | 35° C | 21% | 1020 hPa | 0 mm | - | 976 W/m² | - |
| 1787424330 | 34.44° C | 22% | 1020.2 hPa | 0 mm | - | 972 W/m² | - |
| 1787424030 | 34.44° C | 23% | 1020.2 hPa | 0 mm | - | 966 W/m² | - |
| 1787423726 | 33.89° C | 22% | 1020.2 hPa | 0 mm | - | 961 W/m² | - |
| 1787423422 | 34.44° C | 23% | 1020.2 hPa | 0 mm | - | 953 W/m² | - |
| 1787423118 | 34.44° C | 22% | 1020.4 hPa | 0 mm | - | 945 W/m² | - |
| 1787422814 | 34.44° C | 25% | 1020.4 hPa | 0 mm | - | 937 W/m² | - |
| 1787422510 | 34.44° C | 25% | 1020.5 hPa | 0 mm | - | 929 W/m² | - |
| 1787422210 | 33.89° C | 27% | 1020.5 hPa | 0 mm | - | 916 W/m² | - |
| 1787421907 | 33.89° C | 26% | 1020.5 hPa | 0 mm | - | 904 W/m² | - |
| 1787421602 | 34.44° C | 27% | 1020.5 hPa | 0 mm | - | 889 W/m² | - |
* Rain latest hour (hover to see other rain measurements)
** Current wind speed in m/s (hover to see current wind gust speed)